Stornoway, United Kingdom

3:30 AM BST on October 17, 2017 (GMT +0100)
Stornoway

Weather History for EGPO - November, 2012

Change the Weather History Date:

Saturday, November 3, 2012

  Actual Average Record
Temperature  
Mean Temperature 40 °F -  
Max Temperature 44 °F 47 °F 57 °F (2011)
Min Temperature 35 °F 38 °F 33 °F (2000)
Degree Days  
Heating Degree Days 26    
Moisture  
Dew Point 35 °F    
Average Humidity 79    
Maximum Humidity 87    
Minimum Humidity 54    
Precipitation  
Precipitation 0.08 in 0.17 in - ()
Sea Level Pressure  
Sea Level Pressure 29.11 in    
Wind  
Wind Speed 13 mph ()    
Max Wind Speed 26 mph    
Max Gust Speed 28 mph    
Visibility 6.4 miles    
Events Rain    
Averages and records for this station are not official NWS values.
T = Trace of Precipitation, MM = Missing Value Source: Averaged Metar Reports

Daily Weather History Graph

Daily Weather History Graph

Search for Another Location

Airport or City:

Trip Planner

Search our weather history database for the weather conditions in past years. The results will help you decide how hot, cold, wet, or windy it might be!

Date:

Astronomy

Nov. 03, 2012 Rise Set
Actual Time 7:45 AM GMT 4:31 PM GMT
Civil Twilight 7:02 AM GMT 5:13 PM GMT
Nautical Twilight 6:15 AM GMT 6:01 PM GMT
Astronomical Twilight 5:29 AM GMT 6:46 PM GMT
Moon 7:33 PM GMT (11/3) 12:07 PM GMT (11/3)
Length of Visible Light 10h 11m
Length of Day
8h 45m
Waning Gibbous, 82% of the Moon is Illuminated
Nov 3
Waning Gibbous
Nov 7
Last Quarter
Nov 13
New
Nov 20
First Quarter
Nov 28
Full

Hourly Weather History & Observations

Time (GMT) Temp. Windchill Dew Point Humidity Pressure Visibility Wind Dir Wind Speed Gust Speed Precip Events Conditions
12:20 AM 37.4 °F 32.8 °F 32.0 °F 81% 29.06 in 6.2 mi SW 5.8 mph - N/A   Unknown
12:50 AM 37.4 °F 29.3 °F 33.8 °F 87% 29.06 in 2.2 mi SW 12.7 mph 27.6 mph N/A Rain Light Rain
1:20 AM 39.2 °F 32.5 °F 33.8 °F 81% 29.06 in 6.2 mi SSW 10.4 mph - N/A   Partly Cloudy
1:50 AM 37.4 °F 30.8 °F 32.0 °F 81% 29.06 in 6.2 mi SSW 9.2 mph - N/A   Scattered Clouds
2:20 AM 35.6 °F 32.8 °F 32.0 °F 87% 29.06 in 6.2 mi Variable 3.5 mph - N/A   Scattered Clouds
2:50 AM 43 °F - 38 °F 77% 29.05 in 15 mi South 17.3 mph - - Rain Rain
2:50 AM 37.4 °F 26.6 °F 33.8 °F 87% 29.03 in 6.2 mi South 21.9 mph - N/A   Mostly Cloudy
3:20 AM 39.2 °F 29.3 °F 33.8 °F 81% 29.06 in 3.1 mi South 20.7 mph - N/A Rain Rain
3:50 AM 37.4 °F 26.9 °F 33.8 °F 87% 29.06 in 3.1 mi South 20.7 mph - N/A Rain Rain
4:20 AM 39.2 °F 29.3 °F 33.8 °F 81% 29.06 in 3.1 mi South 20.7 mph - N/A Rain Rain
4:50 AM 39.2 °F 30.2 °F 35.6 °F 87% 29.03 in 6.2 mi South 17.3 mph - N/A   Scattered Clouds
5:20 AM 41.0 °F 30.9 °F 35.6 °F 81% 29.03 in 6.2 mi SSE 24.2 mph - N/A   Scattered Clouds
5:50 AM 40 °F - 36 °F 82% 29.05 in 16 mi South 25.3 mph - - Rain Rain
5:50 AM 39.2 °F 28.0 °F 33.8 °F 81% 29.03 in 6.2 mi South 26.5 mph - N/A Rain Light Rain
6:20 AM 41.0 °F 31.1 °F 35.6 °F 81% 29.06 in 6.2 mi SSE 23.0 mph - N/A Rain Light Rain Showers
6:50 AM 41.0 °F 31.4 °F 35.6 °F 81% 29.06 in 6.2 mi SSE 21.9 mph - N/A   Scattered Clouds
7:20 AM 41.0 °F 30.5 °F 35.6 °F 81% 29.03 in 6.2 mi SSE 26.5 mph - N/A Rain Light Rain Showers
7:50 AM 41.0 °F 30.7 °F 35.6 °F 81% 29.06 in 6.2 mi SE 25.3 mph - N/A   Scattered Clouds
8:20 AM 39.2 °F 30.8 °F 35.6 °F 87% 29.06 in 6.2 mi SSW 15.0 mph - N/A   Scattered Clouds
8:50 AM 38 °F - 36 °F 87% 29.08 in 22 mi SSW 10.4 mph - - Rain Rain Showers
8:50 AM 39.2 °F 34.2 °F 35.6 °F 87% 29.09 in 6.2 mi South 6.9 mph - N/A   Mostly Cloudy
9:20 AM 39.2 °F 32.0 °F 35.6 °F 87% 29.09 in 6.2 mi South 11.5 mph 25.3 mph N/A Rain Light Rain Showers
9:50 AM 39.2 °F 35.0 °F 35.6 °F 87% 29.09 in 6.2 mi West 5.8 mph - N/A   Mostly Cloudy
10:20 AM 39.2 °F 32.5 °F 35.6 °F 87% 29.09 in 6.2 mi WSW 10.4 mph - N/A   Mostly Cloudy
10:50 AM 39.2 °F 32.0 °F 35.6 °F 87% 29.09 in 6.2 mi WSW 11.5 mph - N/A   Mostly Cloudy
11:20 AM 39.2 °F 35.0 °F 35.6 °F 87% 29.09 in 6.2 mi SW 5.8 mph - N/A   Scattered Clouds
11:50 AM 43 °F - 37 °F 73% 29.11 in 25 mi South 17.3 mph - - Rain Rain
11:50 AM 42.8 °F 34.8 °F 37.4 °F 81% 29.09 in 6.2 mi South 17.3 mph - N/A   Scattered Clouds
12:20 PM 44.6 °F 36.6 °F 39.2 °F 81% 29.09 in 6.2 mi South 19.6 mph - N/A   Scattered Clouds
12:50 PM 44.6 °F 37.8 °F 37.4 °F 76% 29.12 in 6.2 mi South 15.0 mph - N/A   Scattered Clouds
1:20 PM 42.8 °F 35.1 °F 35.6 °F 76% 29.12 in 6.2 mi South 16.1 mph - N/A   Partly Cloudy
1:50 PM 42.8 °F 34.5 °F 37.4 °F 81% 29.12 in 6.2 mi South 18.4 mph - N/A   Scattered Clouds
2:20 PM 42.8 °F 35.1 °F 37.4 °F 81% 29.12 in 6.2 mi South 16.1 mph - N/A   Scattered Clouds
2:50 PM 44 °F - 35 °F 63% 29.11 in 28 mi SSE 15.0 mph - -   Scattered Clouds
2:50 PM 42.8 °F 34.8 °F 37.4 °F 81% 29.12 in 6.2 mi SSE 17.3 mph - N/A   Scattered Clouds
3:20 PM 42.8 °F 35.1 °F 35.6 °F 76% 29.12 in 6.2 mi SSE 16.1 mph - N/A   Scattered Clouds
3:50 PM 42.8 °F 35.1 °F 33.8 °F 70% 29.12 in 6.2 mi SSE 16.1 mph - N/A   Scattered Clouds
4:20 PM 41.0 °F 33.1 °F 33.8 °F 76% 29.12 in 6.2 mi SSE 15.0 mph - N/A   Scattered Clouds
4:50 PM 42.8 °F 35.8 °F 32.0 °F 66% 29.15 in 6.2 mi SSE 13.8 mph - N/A   Scattered Clouds
5:20 PM 41.0 °F 33.9 °F 32.0 °F 70% 29.15 in 6.2 mi SE 12.7 mph - N/A   Scattered Clouds
5:50 PM 42 °F - 31 °F 54% 29.15 in 31 mi SE 11.5 mph - -   Scattered Clouds
5:50 PM 41.0 °F 33.9 °F 32.0 °F 70% 29.15 in 6.2 mi SE 12.7 mph - N/A   Mostly Cloudy
6:20 PM 41.0 °F 35.2 °F 33.8 °F 76% 29.15 in 6.2 mi ESE 9.2 mph - N/A   Mostly Cloudy
6:50 PM 41.0 °F 35.2 °F 33.8 °F 76% 29.15 in 6.2 mi ESE 9.2 mph - N/A   Scattered Clouds
7:20 PM 42.8 °F 37.5 °F 33.8 °F 70% 29.15 in 6.2 mi East 9.2 mph - N/A   Mostly Cloudy
7:50 PM 42.8 °F 38.0 °F 33.8 °F 70% 29.15 in 6.2 mi East 8.1 mph - N/A   Scattered Clouds
8:20 PM 42.8 °F 38.6 °F 33.8 °F 70% 29.15 in 6.2 mi East 6.9 mph - N/A   Scattered Clouds
8:50 PM 40 °F - 33 °F 68% 29.16 in 25 mi East 9.2 mph - -   Scattered Clouds
8:50 PM 42.8 °F 38.6 °F 33.8 °F 70% 29.18 in 6.2 mi East 6.9 mph - N/A   Scattered Clouds
9:20 PM 42.8 °F 38.0 °F 35.6 °F 76% 29.18 in 6.2 mi East 8.1 mph - N/A   Mostly Cloudy
9:50 PM 42.8 °F 35.8 °F 33.8 °F 70% 29.18 in 6.2 mi SE 13.8 mph - N/A   Partly Cloudy
10:20 PM 41.0 °F 33.9 °F 35.6 °F 81% 29.18 in 6.2 mi SE 12.7 mph - N/A   Unknown
10:50 PM 41.0 °F 34.7 °F 35.6 °F 81% 29.18 in 6.2 mi SE 10.4 mph - N/A   Unknown
11:20 PM 41.0 °F 34.7 °F 35.6 °F 81% 29.18 in 6.2 mi ESE 10.4 mph - N/A   Unknown
11:50 PM 40 °F - 37 °F 85% 29.19 in 10 mi ESE 8.1 mph - -   Scattered Clouds
11:50 PM 41.0 °F 35.8 °F 35.6 °F 81% 29.18 in 6.2 mi ESE 8.1 mph - N/A   Unknown